Home   Weather   Pierre   Past weeks

Flag for USA Past Weather in Pierre, South Dakota, USA — Yesterday and Last 2 Weeks

Now
33 °F

Sunny.


Feels Like: 33 °F
Forecast: 19 / 35 °F
Wind: No wind

Location: Pierre Regional Airport

Current Time: Jan 18, 2017 at 4:31:49 pm

Latest Report: Jan 18, 2017 at 3:53 pm


Visibility: 10 mi

Pressure: 29.76 "Hg

Humidity: 66%

Dew Point: 23 °F

Location of PierreLocation

Past Weather in Pierre — Graph

°F

Pierre Temperature Yesterday

Maximum temperature yesterday: 26 °F (at 4:53 pm)
Minimum temperature yesterday: 8 °F (at 12:53 am)
Average temperature yesterday: 18 °F

High & Low Weather Summary for the Past Weeks

 TemperatureHumidityPressure
High34 °F (Jan 18, 2:53 pm)92% (Jan 14, 3:08 am)30.78 "Hg (Jan 14, 3:08 am)
Low-11 °F (Jan 12, 9:53 pm)60% (Jan 6, 11:53 am)29.55 "Hg (Jan 10, 2:10 am)
Average7 °F77%30.21 "Hg
* Reported Jan 3 2:53 pm — Jan 18 2:53 pm, Pierre, Weather by CustomWeather, © 2017

Note: Actual official high and low records may vary slightly from our data, if they occured in-between our weather recording intervals... More about our weather records

Advertising

Pierre Weather History for the Previous 24 Hours

Scroll right to see more
 ConditionsComfort  
Time TempWeatherWind HumidityBarometerVisibility
2:53 pm
Wed, Jan 18
34 °FSunny.No wind64%29.77 "Hg10 mi
1:53 pm30 °FSunny.6 mph75%29.79 "Hg10 mi
12:53 pm28 °FSunny.5 mph72%29.84 "Hg10 mi
11:53 am26 °FSunny.No wind74%29.87 "Hg10 mi
10:53 am22 °FSunny.3 mph78%29.87 "Hg10 mi
9:53 am19 °FSunny.8 mph77%29.88 "Hg10 mi
8:53 am14 °FSunny.No wind87%29.90 "Hg10 mi
7:53 am14 °FClear.No wind84%29.90 "Hg10 mi
6:53 am16 °FClear.No wind80%29.90 "Hg10 mi
5:53 am23 °FClear.6 mph72%29.90 "Hg10 mi
4:53 am21 °FClear.9 mph74%29.90 "Hg10 mi
3:53 am15 °FClear.5 mph87%29.93 "Hg10 mi
2:53 am18 °FClear.No wind77%29.94 "Hg10 mi
1:53 am19 °FClear.No wind85%29.94 "Hg10 mi
12:53 am16 °FClear.6 mph87%29.93 "Hg10 mi
11:53 pm
Tue, Jan 17
20 °FClear.3 mph82%29.94 "Hg10 mi
10:53 pm21 °FClear.3 mph78%29.93 "Hg10 mi
9:53 pm22 °FClear.5 mph78%29.95 "Hg10 mi
8:53 pm21 °FClear.5 mph78%29.96 "Hg10 mi
7:53 pm23 °FClear.5 mph81%29.98 "Hg10 mi
6:53 pm23 °FClear.3 mph81%29.98 "Hg10 mi
5:53 pm20 °FClear.5 mph78%29.99 "Hg10 mi
4:53 pm26 °FSunny.6 mph71%29.98 "Hg10 mi
Weather by CustomWeather, © 2017

See weather overviewHow to use our weather pages